Location: Gudip?du
(17.0263°N, 80.8301°E)
Time: 07:44:15
(UTC+00:00)

Centaur AC-42 - Pass Details

Date: 03 August 2024
Orbit: 640 x 36238 km, 20.0° (Epoch: 10 September)

Event Time Altitude Azimuth Distance (km) Brightness Sun altitude
Rises 15:13:35 0° 255° (WSW) 3,349 5.9 -28.1°
Reaches altitude 10° 15:15:05 10° 254° (WSW) 2,713 5.3 -28.4°
Maximum altitude 15:20:47 86° 165° (SSE) 1,861 3.7 -29.6°
Drops below altitude 10° 01:06:21 10° 125° (SE) 15,354 9.3 10.4°
Sets 01:16:44 0° 122° (ESE) 13,840 9.1 12.8°
